Time,TemperatureF,DewpointF,PressureIn,WindDirection,WindDirectionDegrees,WindSpeedMPH,WindSpeedGustMPH,Humidity,HourlyPrecipIn,Conditions,Clouds,dailyrainin,SolarRadiationWatts/m^2,SoftwareType,DateUTC
2013-05-28 00:00:00,60.0,35.0,-100.00,East,90,7.0,-999.0,37,-99.99,,,-99.99,0.000000,,2013-05-28 04:00:00,
2013-05-28 00:33:00,60.0,35.0,-100.00,East,90,7.0,-999.0,37,-99.99,,,-99.99,0.000000,,2013-05-28 04:33:00,
2013-05-28 00:43:00,60.0,35.0,-100.00,East,90,7.0,-999.0,37,-99.99,,,-99.99,0.000000,,2013-05-28 04:43:00,
2013-05-28 00:53:00,60.0,35.0,-100.00,East,90,7.0,-999.0,37,-99.99,,,-99.99,0.000000,,2013-05-28 04:53:00,
2013-05-28 01:00:00,59.0,36.0,-100.00,East,90,7.0,-999.0,42,-99.99,,,-99.99,0.000000,,2013-05-28 05:00:00,
2013-05-28 01:33:00,59.0,36.0,-100.00,East,90,7.0,-999.0,42,-99.99,,,-99.99,0.000000,,2013-05-28 05:33:00,
2013-05-28 01:42:00,59.0,36.0,-100.00,East,90,7.0,-999.0,42,-99.99,,,-99.99,0.000000,,2013-05-28 05:42:00,
2013-05-28 01:52:00,59.0,36.0,-100.00,East,90,7.0,-999.0,42,-99.99,,,-99.99,0.000000,,2013-05-28 05:52:00,
2013-05-28 02:00:00,58.0,36.0,-100.00,East,90,5.0,-999.0,44,-99.99,,,-99.99,0.000000,,2013-05-28 06:00:00,
2013-05-28 02:32:00,58.0,36.0,-100.00,East,90,5.0,-999.0,44,-99.99,,,-99.99,0.000000,,2013-05-28 06:32:00,
2013-05-28 02:42:00,58.0,36.0,-100.00,East,90,5.0,-999.0,44,-99.99,,,-99.99,0.000000,,2013-05-28 06:42:00,
2013-05-28 02:52:00,58.0,36.0,-100.00,East,90,5.0,-999.0,44,-99.99,,,-99.99,0.000000,,2013-05-28 06:52:00,
2013-05-28 03:00:00,57.0,36.0,-100.00,ESE,112,5.0,-999.0,45,-99.99,,,-99.99,0.000000,,2013-05-28 07:00:00,
2013-05-28 03:32:00,57.0,36.0,-100.00,ESE,112,5.0,-999.0,45,-99.99,,,-99.99,0.000000,,2013-05-28 07:32:00,
2013-05-28 03:42:00,57.0,36.0,-100.00,ESE,112,5.0,-999.0,45,-99.99,,,-99.99,0.000000,,2013-05-28 07:42:00,
2013-05-28 03:52:00,57.0,36.0,-100.00,ESE,112,5.0,-999.0,45,-99.99,,,-99.99,0.000000,,2013-05-28 07:52:00,
2013-05-28 04:00:00,55.0,39.0,-100.00,East,90,4.0,-999.0,54,-99.99,,,-99.99,0.000000,,2013-05-28 08:00:00,
2013-05-28 04:32:00,55.0,39.0,-100.00,East,90,4.0,-999.0,54,-99.99,,,-99.99,0.000000,,2013-05-28 08:32:00,
2013-05-28 04:42:00,55.0,39.0,-100.00,East,90,4.0,-999.0,54,-99.99,,,-99.99,0.000000,,2013-05-28 08:42:00,
2013-05-28 04:52:00,55.0,39.0,-100.00,East,90,4.0,-999.0,54,-99.99,,,-99.99,0.000000,,2013-05-28 08:52:00,
2013-05-28 05:00:00,54.0,42.0,-100.00,ESE,112,3.0,-999.0,62,-99.99,,,-99.99,0.000000,,2013-05-28 09:00:00,
2013-05-28 05:33:00,54.0,42.0,-100.00,ESE,112,3.0,-999.0,62,-99.99,,,-99.99,0.000000,,2013-05-28 09:33:00,
2013-05-28 05:43:00,54.0,42.0,-100.00,ESE,112,3.0,-999.0,62,-99.99,,,-99.99,0.000000,,2013-05-28 09:43:00,
2013-05-28 05:54:00,54.0,42.0,-100.00,ESE,112,3.0,-999.0,62,-99.99,,,-99.99,0.000000,,2013-05-28 09:54:00,
2013-05-28 06:00:00,55.0,45.0,-100.00,ESE,112,5.0,-999.0,69,-99.99,,,-99.99,0.000000,,2013-05-28 10:00:00,
2013-05-28 06:32:00,55.0,45.0,-100.00,ESE,112,5.0,-999.0,69,-99.99,,,-99.99,0.000000,,2013-05-28 10:32:00,
2013-05-28 06:43:00,55.0,45.0,-100.00,ESE,112,5.0,-999.0,69,-99.99,,,-99.99,0.000000,,2013-05-28 10:43:00,
2013-05-28 06:53:00,55.0,45.0,-100.00,ESE,112,5.0,-999.0,69,-99.99,,,-99.99,0.000000,,2013-05-28 10:53:00,
2013-05-28 07:00:00,55.0,46.0,-100.00,ESE,112,4.0,-999.0,72,-99.99,,,-99.99,6.960000,,2013-05-28 11:00:00,
2013-05-28 07:32:00,55.0,46.0,-100.00,ESE,112,4.0,-999.0,72,-99.99,,,-99.99,6.960000,,2013-05-28 11:32:00,
2013-05-28 07:42:00,55.0,46.0,-100.00,ESE,112,4.0,-999.0,72,-99.99,,,-99.99,6.960000,,2013-05-28 11:42:00,
2013-05-28 07:52:00,55.0,46.0,-100.00,ESE,112,4.0,-999.0,72,-99.99,,,-99.99,6.960000,,2013-05-28 11:52:00,
2013-05-28 08:00:00,55.0,47.0,-100.00,ESE,112,4.0,-999.0,74,-99.99,,,-99.99,24.360001,,2013-05-28 12:00:00,
2013-05-28 08:32:00,55.0,47.0,-100.00,ESE,112,4.0,-999.0,74,-99.99,,,-99.99,24.360001,,2013-05-28 12:32:00,
2013-05-28 08:42:00,55.0,47.0,-100.00,ESE,112,4.0,-999.0,74,-99.99,,,-99.99,24.360001,,2013-05-28 12:42:00,
2013-05-28 08:52:00,55.0,47.0,-100.00,ESE,112,4.0,-999.0,74,-99.99,,,-99.99,24.360001,,2013-05-28 12:52:00,
2013-05-28 09:00:00,55.0,47.0,-100.00,ESE,112,4.0,-999.0,76,-99.99,,,-99.99,26.680000,,2013-05-28 13:00:00,
2013-05-28 09:32:00,55.0,47.0,-100.00,ESE,112,4.0,-999.0,76,-99.99,,,-99.99,26.680000,,2013-05-28 13:32:00,
2013-05-28 09:42:00,55.0,47.0,-100.00,ESE,112,4.0,-999.0,76,-99.99,,,-99.99,26.680000,,2013-05-28 13:42:00,
2013-05-28 09:52:00,55.0,47.0,-100.00,ESE,112,4.0,-999.0,76,-99.99,,,-99.99,26.680000,,2013-05-28 13:52:00,
2013-05-28 10:00:00,55.0,49.0,-100.00,ESE,112,6.0,-999.0,78,-99.99,,,-99.99,85.839996,,2013-05-28 14:00:00,
2013-05-28 10:32:00,55.0,49.0,-100.00,ESE,112,6.0,-999.0,78,-99.99,,,-99.99,85.839996,,2013-05-28 14:32:00,
2013-05-28 10:42:00,55.0,49.0,-100.00,ESE,112,6.0,-999.0,78,-99.99,,,-99.99,85.839996,,2013-05-28 14:42:00,
2013-05-28 10:52:00,55.0,49.0,-100.00,ESE,112,6.0,-999.0,78,-99.99,,,-99.99,85.839996,,2013-05-28 14:52:00,
2013-05-28 11:00:00,56.0,50.0,-100.00,ESE,112,5.0,-999.0,78,-99.99,,,-99.99,83.519997,,2013-05-28 15:00:00,
2013-05-28 11:33:00,56.0,50.0,-100.00,ESE,112,5.0,-999.0,78,-99.99,,,-99.99,83.519997,,2013-05-28 15:33:00,
2013-05-28 11:43:00,56.0,50.0,-100.00,ESE,112,5.0,-999.0,78,-99.99,,,-99.99,83.519997,,2013-05-28 15:43:00,
2013-05-28 11:53:00,56.0,50.0,-100.00,ESE,112,5.0,-999.0,78,-99.99,,,-99.99,83.519997,,2013-05-28 15:53:00,
2013-05-28 12:00:00,56.0,51.0,-100.00,ESE,112,4.0,-999.0,80,-99.99,,,-99.99,84.680000,,2013-05-28 16:00:00,
2013-05-28 12:33:00,56.0,51.0,-100.00,ESE,112,4.0,-999.0,80,-99.99,,,-99.99,84.680000,,2013-05-28 16:33:00,
2013-05-28 12:42:00,56.0,51.0,-100.00,ESE,112,4.0,-999.0,80,-99.99,,,-99.99,84.680000,,2013-05-28 16:42:00,
2013-05-28 12:53:00,56.0,51.0,-100.00,ESE,112,4.0,-999.0,80,-99.99,,,-99.99,84.680000,,2013-05-28 16:53:00,
2013-05-28 13:00:00,55.0,52.0,-100.00,East,90,6.0,-999.0,90,0.01,,,-99.99,102.080002,,2013-05-28 17:00:00,
2013-05-28 13:32:00,55.0,52.0,-100.00,East,90,6.0,-999.0,90,0.01,,,-99.99,102.080002,,2013-05-28 17:32:00,
2013-05-28 13:42:00,55.0,52.0,-100.00,East,90,6.0,-999.0,90,0.01,,,-99.99,102.080002,,2013-05-28 17:42:00,
2013-05-28 13:52:00,55.0,52.0,-100.00,East,90,6.0,-999.0,90,0.01,,,-99.99,102.080002,,2013-05-28 17:52:00,
2013-05-28 14:00:00,56.0,53.0,-100.00,ESE,112,7.0,-999.0,91,0.03,,,-99.99,162.399994,,2013-05-28 18:00:00,
2013-05-28 14:32:00,56.0,53.0,-100.00,ESE,112,7.0,-999.0,91,0.03,,,-99.99,162.399994,,2013-05-28 18:32:00,
2013-05-28 14:43:00,56.0,53.0,-100.00,ESE,112,7.0,-999.0,91,0.03,,,-99.99,162.399994,,2013-05-28 18:43:00,
2013-05-28 14:52:00,56.0,53.0,-100.00,ESE,112,7.0,-999.0,91,0.03,,,-99.99,162.399994,,2013-05-28 18:52:00,
2013-05-28 15:00:00,56.0,54.0,-100.00,SE,135,3.0,-999.0,91,0.10,,,-99.99,109.040001,,2013-05-28 19:00:00,
2013-05-28 15:32:00,56.0,54.0,-100.00,SE,135,3.0,-999.0,91,0.10,,,-99.99,109.040001,,2013-05-28 19:32:00,
2013-05-28 15:42:00,56.0,54.0,-100.00,SE,135,3.0,-999.0,91,0.10,,,-99.99,109.040001,,2013-05-28 19:42:00,
2013-05-28 15:52:00,56.0,54.0,-100.00,SE,135,3.0,-999.0,91,0.10,,,-99.99,109.040001,,2013-05-28 19:52:00,
2013-05-28 16:00:00,57.0,54.0,-100.00,ESE,112,5.0,-999.0,92,0.01,,,-99.99,142.679993,,2013-05-28 20:00:00,
2013-05-28 16:32:00,57.0,54.0,-100.00,ESE,112,5.0,-999.0,92,0.01,,,-99.99,142.679993,,2013-05-28 20:32:00,
2013-05-28 16:42:00,57.0,54.0,-100.00,ESE,112,5.0,-999.0,92,0.01,,,-99.99,142.679993,,2013-05-28 20:42:00,
2013-05-28 16:52:00,57.0,54.0,-100.00,ESE,112,5.0,-999.0,92,0.01,,,-99.99,142.679993,,2013-05-28 20:52:00,
2013-05-28 17:00:00,57.0,55.0,-100.00,East,90,3.0,-999.0,92,0.07,,,-99.99,62.639999,,2013-05-28 21:00:00,
2013-05-28 17:33:00,57.0,55.0,-100.00,East,90,3.0,-999.0,92,0.07,,,-99.99,62.639999,,2013-05-28 21:33:00,
2013-05-28 17:43:00,57.0,55.0,-100.00,East,90,3.0,-999.0,92,0.07,,,-99.99,62.639999,,2013-05-28 21:43:00,
2013-05-28 17:53:00,57.0,55.0,-100.00,East,90,3.0,-999.0,92,0.07,,,-99.99,62.639999,,2013-05-28 21:53:00,
2013-05-28 18:00:00,58.0,56.0,-100.00,ESE,112,0.0,-999.0,93,0.01,,,-99.99,85.839996,,2013-05-28 22:00:00,
2013-05-28 18:33:00,58.0,56.0,-100.00,ESE,112,0.0,-999.0,93,0.01,,,-99.99,85.839996,,2013-05-28 22:33:00,
2013-05-28 18:42:00,58.0,56.0,-100.00,ESE,112,0.0,-999.0,93,0.01,,,-99.99,85.839996,,2013-05-28 22:42:00,
2013-05-28 18:52:00,58.0,56.0,-100.00,ESE,112,0.0,-999.0,93,0.01,,,-99.99,85.839996,,2013-05-28 22:52:00,
2013-05-28 19:00:00,59.0,57.0,-100.00,ESE,112,0.0,-999.0,93,0.02,,,-99.99,34.799999,,2013-05-28 23:00:00,
2013-05-28 19:32:00,59.0,57.0,-100.00,ESE,112,0.0,-999.0,93,0.02,,,-99.99,34.799999,,2013-05-28 23:32:00,
2013-05-28 19:42:00,59.0,57.0,-100.00,ESE,112,0.0,-999.0,93,0.02,,,-99.99,34.799999,,2013-05-28 23:42:00,
2013-05-28 19:52:00,59.0,57.0,-100.00,ESE,112,0.0,-999.0,93,0.02,,,-99.99,34.799999,,2013-05-28 23:52:00,
2013-05-28 21:00:00,60.0,58.0,-100.00,East,90,0.0,-999.0,94,-99.99,,,-99.99,8.120000,,2013-05-29 01:00:00,
2013-05-28 21:32:00,60.0,58.0,-100.00,East,90,0.0,-999.0,94,-99.99,,,-99.99,8.120000,,2013-05-29 01:32:00,
2013-05-28 21:42:00,60.0,58.0,-100.00,East,90,0.0,-999.0,94,-99.99,,,-99.99,8.120000,,2013-05-29 01:42:00,
2013-05-28 21:52:00,60.0,58.0,-100.00,East,90,0.0,-999.0,94,-99.99,,,-99.99,8.120000,,2013-05-29 01:52:00,
2013-05-28 22:00:00,60.0,59.0,-100.00,SSE,157,0.0,-999.0,94,-99.99,,,-99.99,1.160000,,2013-05-29 02:00:00,
2013-05-28 22:32:00,60.0,59.0,-100.00,SSE,157,0.0,-999.0,94,-99.99,,,-99.99,1.160000,,2013-05-29 02:32:00,
2013-05-28 22:42:00,60.0,59.0,-100.00,SSE,157,0.0,-999.0,94,-99.99,,,-99.99,1.160000,,2013-05-29 02:42:00,
2013-05-28 22:52:00,60.0,59.0,-100.00,SSE,157,0.0,-999.0,94,-99.99,,,-99.99,1.160000,,2013-05-29 02:52:00,
2013-05-28 23:00:00,60.0,59.0,-100.00,SW,225,0.0,-999.0,94,-99.99,,,-99.99,0.000000,,2013-05-29 03:00:00,
2013-05-28 23:33:00,60.0,59.0,-100.00,SW,225,0.0,-999.0,94,-99.99,,,-99.99,0.000000,,2013-05-29 03:33:00,
2013-05-28 23:43:00,60.0,59.0,-100.00,SW,225,0.0,-999.0,94,-99.99,,,-99.99,0.000000,,2013-05-29 03:43:00,
2013-05-28 23:53:00,60.0,59.0,-100.00,SW,225,0.0,-999.0,94,-99.99,,,-99.99,0.000000,,2013-05-29 03:53:00,